Find Starlink 32092

NORAD ID: 59700 Int'l Des: 2024-086 Owner: SPXS Country: US Constellation: starlink operational
LEOCIRCULAR

Current View

Loading 3D Globe...

About Starlink 32092

Starlink 32092 (NORAD 59700) is a starlink constellation satellite (v2 mini) launched May 8, 2024 by SPXS of US. It operates in LEO, CIRCULAR orbit with a mass of 730.00 kg.

About Starlink 32092

Description loading...

Upcoming Passes

Passes for default location (London). Set your location on the main map for personalized predictions.

Altitude History

Loading altitude history...

Two-Line Element Set

1 59700U 24086U 26170.18706704 .00004925 00000-0 18851-3 0 9996
2 59700 43.0008 206.7943 0001345 263.7863 96.2835 15.27557204119638
Epoch: Jun 19, 2026 • Age: 22 hours

Current Status

Altitude 487.2 km
Velocity 7.62 km/s
Sub-Earth Point -20.50°S, 125.05°W
Launch Date May 8, 2024
Age 2.1 years
Type internet

Technical Details

Classification Payload
Mass 730.00 kg
Dry Mass 700.00 kg
Total Mass 730.00 kg
Length 0.30 m
Diameter 4.10 m
Span 29.00 m
Shape Box + pan
Manufacturer SPXS
Bus Type Starlink V2M
Phase Status In Orbit
Owner/State SPXS/US

Most Searched